Find Fucheng-1

NORAD ID: 56846 Int'l Des: NNA 2023-081 Owner: FUCHW Country: CN operational
LEOCIRCULARRETROGRADESSO

实时位置

正在加载3D地球...

关于 Fucheng-1

正在加载描述...

即将过境

Passes for default location (London). Set your location on the main map for personalized predictions.

高度历史

Loading altitude history...

两行轨道根数

1 56846U 23081A 26107.27175658 .00001779 00000-0 79690-4 0 9999
2 56846 97.3734 178.4959 0002054 88.5418 271.6053 15.22529944158744
Epoch: Apr 17, 2026 • Age: 12 hours

当前状态

高度 504.9 km
速度 7.62 km/s
星下点 48.82°N, 110.49°W
发射日期 Jun 7, 2023
运行时间 2.8 years
类型 other

技术详情

分类 Payload
质量 300.00 kg
干质量 300.00 kg
总质量 300.00 kg
长度 1.50 m
直径 1.50 m
跨度 5.00 m
形状 Box+panels
制造商 CTYK
阶段状态 In Orbit
所有者/国家 FUCHW/CN

Most Searched